ROMMA est une association bénévole à but non lucratif. Votre soutien est indispensable : ADHERER à ROMMA ou FAIRE un DON

Engins - (38, Isère)

Vercors (906 m)   Longitude: 05° 37' E   Latitude: 45° 11' N Station partenaire n°139
 

Détail journalier du     <<     >>

Température Humidité Vent Dir Rafale Dir. rafale Ensol.
Heure (°C) (%) (km/h) (km/h) (min)
01:00 11.4627SSO16SSE0
02:00 11.9629SO21OSO0
03:00 11.4668SSO21S0
04:00 11.36712SSO26SSO0
05:00 11.66412SSO29SSO0
06:00 11.0628SO18S0
07:00 12.1589SSO23SSO0
08:00 11.4618SSO19SSO0
09:00 13.45510SSO24S30
10:00 15.15513S26SSE60
11:00 17.9556SSE23SSE60
12:00 19.6563E6SSE60
13:00 19.8603NE8ENE60
14:00 21.2583ENE8SSE55
15:00 23.13713S35SSE50
16:00 23.13417S34SSE60
17:00 22.73711S29SSE60
18:00 21.2449S26S0
19:00 19.8485SSO18S0
20:00 13.28316S56SSO0
21:00 12.3919SO31SSO0
22:00 11.9942SSO16SSE0
23:00 11.9952SSO10SSE0
minuit 12.1963O10OSO0

Graphique du 01-10-2019

 

Serveur OMMA